GFSMW_850_spd_132.txt.gz
Wind_Speed
24 21 22 20 18 17 16 13 16 15 11 11 9 8 8 6 5 6 2 4 2 3 6 4 4 16 12 6 9 7 7 3 1 4 2 10 2 8 10 11 13 6 9
22 23 26 22 22 21 19 18 13 16 14 11 10 6 13 13 8 10 7 5 6 4 2 5 24 0 9 6 6 3 6 1 9 7 15 17 7 11 24 13 16 6 7
28 25 26 25 25 24 22 18 16 17 19 14 14 7 12 9 12 8 6 9 5 2 6 3 3 2 4 6 7 9 7 6 2 6 6 10 9 11 13 11 14 2 2
29 26 26 23 25 24 22 20 17 12 17 17 12 9 11 8 9 9 9 10 5 4 4 7 1 3 1 3 5 3 6 6 5 14 7 3 1 5 7 9 3 11 4
27 23 29 27 26 24 22 21 18 19 15 17 18 12 10 8 12 9 9 6 4 7 5 8 7 7 1 7 4 7 7 7 5 5 7 7 9 5 9 12 4 6 2
29 35 28 27 27 24 22 23 21 19 19 17 19 17 9 11 8 9 6 4 4 5 4 7 8 5 5 4 3 7 4 4 7 8 5 11 10 12 11 14 12 19 7
25 26 29 29 29 26 24 25 21 18 20 18 21 19 17 14 10 12 5 9 10 4 12 7 7 7 5 6 8 9 6 6 7 8 8 7 7 8 8 9 13 15 13
27 40 30 33 29 31 27 24 21 15 18 20 18 21 20 17 13 9 9 6 5 7 5 6 5 5 6 5 8 9 9 11 11 11 9 10 8 2 14 7 8 12 15
22 26 33 33 31 33 28 25 21 16 14 17 19 18 18 17 12 10 11 8 11 7 16 10 8 9 11 7 7 8 7 9 9 8 10 11 7 11 13 8 9 10 12
27 24 35 32 32 30 29 25 21 18 14 18 19 18 18 17 17 15 10 7 10 16 6 6 8 9 11 9 11 9 10 13 15 7 13 10 11 12 9 14 12 8 11
30 27 19 32 32 28 30 27 24 21 19 18 21 17 18 18 16 16 11 12 12 8 7 13 12 9 9 10 10 11 11 15 14 11 10 14 13 15 15 14 9 9 7
19 14 20 20 32 29 30 29 28 26 20 20 20 18 18 16 15 12 12 12 11 9 10 13 13 10 8 8 13 13 11 15 14 10 10 11 11 13 14 11 10 10 10
8 9 10 13 31 29 27 31 31 29 24 22 20 19 18 17 17 18 14 13 13 12 14 12 14 11 10 9 10 12 13 12 12 14 12 13 16 17 14 15 16 14 13
11 11 14 21 24 27 23 19 25 24 25 23 21 19 19 17 18 20 17 14 15 16 15 13 13 15 13 13 12 12 13 13 13 16 14 15 18 16 18 16 15 15 16
15 6 14 7 8 9 11 14 12 17 22 21 22 21 18 18 18 17 16 13 13 14 13 12 13 17 16 14 12 15 13 13 15 16 15 16 17 19 19 20 18 16 16
14 13 5 5 19 10 14 11 19 12 22 24 20 19 20 20 19 20 18 18 18 17 17 18 18 19 19 17 16 15 16 20 23 19 16 16 19 19 18 19 18 17 18
10 11 14 17 18 20 21 15 16 16 17 23 25 23 20 22 23 23 23 23 24 22 23 21 22 22 21 20 20 18 19 21 22 20 18 17 12 17 21 19 18 19 18
8 8 9 13 10 11 19 16 15 15 14 18 18 25 25 24 23 24 23 22 21 22 23 23 24 25 24 23 21 26 28 21 20 19 19 19 18 20 18 19 17 14 17
7 7 6 9 12 13 14 14 10 6 7 8 10 10 15 17 26 24 22 20 19 19 19 18 19 22 24 26 27 26 26 23 20 22 20 19 20 22 22 18 19 17 18
8 5 3 4 5 13 14 11 10 11 6 7 8 14 13 14 11 11 9 14 18 18 18 19 20 21 21 23 24 24 22 23 24 24 22 21 20 20 19 17 17 18 11
9 6 5 7 5 8 13 13 15 16 10 6 8 9 9 11 11 9 9 12 12 12 12 12 12 13 15 17 16 17 17 17 21 21 21 20 17 15 12 10 8 8 9
8 7 9 8 8 8 8 9 7 12 12 12 11 10 10 6 4 6 6 7 7 7 6 6 5 6 6 9 10 9 3 7 7 9 15 15 14 16 12 14 17 14 15
8 7 11 9 7 7 7 7 9 10 11 9 8 7 7 6 6 6 5 4 4 3 3 4 1 1 1 3 2 3 4 6 7 8 6 7 7 7 8 10 11 11 11
8 8 10 10 10 8 8 6 5 4 4 5 6 7 6 7 6 6 7 6 7 6 4 5 2 3 2 1 1 4 5 7 8 7 7 7 6 8 9 6 3 4 5
8 8 9 8 12 9 9 9 8 7 7 6 6 7 7 7 6 3 3 3 2 5 7 5 4 5 3 3 3 3 3 5 5 5 6 6 4 5 4 4 3 3 2
8 8 7 9 9 9 8 8 9 10 10 10 10 9 8 8 7 7 6 5 4 4 3 2 2 3 4 7 9 8 10 10 9 7 6 5 4 5 5 3 1 1 2

GFSMW_850_spd_135.txt.gz
Wind_Speed
25 23 23 28 22 18 21 22 18 15 14 12 12 11 18 11 9 10 9 6 9 2 3 2 5 6 11 9 4 0 2 5 2 3 5 5 5 6 11 16 23 17 14
28 27 27 23 26 23 24 18 19 14 14 14 11 12 15 12 8 2 3 9 3 5 6 7 16 15 11 5 3 8 3 6 3 3 2 9 11 6 9 8 14 9 7
34 32 32 30 27 23 26 23 21 18 19 17 14 12 13 13 11 9 3 10 6 4 3 5 12 5 11 10 8 2 5 7 3 2 6 5 9 16 6 8 18 6 3
34 36 35 34 30 26 26 23 21 17 20 18 15 12 12 14 11 9 8 12 10 4 4 1 1 1 4 4 5 1 2 3 5 9 7 4 14 20 8 11 5 10 5
34 38 37 36 34 29 26 25 21 19 23 20 18 12 17 14 9 10 10 9 7 11 5 3 4 5 2 1 1 4 5 6 4 3 4 4 5 9 12 10 6 11 1
26 30 36 36 36 31 27 26 24 18 19 24 20 17 18 13 14 11 9 6 4 6 11 10 6 5 8 8 5 4 4 2 4 5 6 5 4 8 10 11 9 13 8
28 35 38 37 39 35 30 26 24 18 18 25 22 21 19 15 12 15 9 6 7 5 5 9 7 4 5 5 3 5 2 1 3 5 8 8 7 8 15 7 9 11 10
29 36 32 39 41 38 32 26 25 19 16 22 22 22 21 16 14 13 9 9 7 8 6 13 8 5 6 4 4 2 3 3 7 6 5 1 2 5 8 9 9 8 7
25 25 35 36 43 39 35 29 24 22 14 18 23 22 22 19 15 13 13 14 11 9 13 12 10 7 6 7 10 7 7 7 10 5 6 5 3 6 6 6 7 4 9
6 30 34 41 44 40 36 30 25 22 17 14 21 21 22 23 22 20 17 16 14 13 9 7 13 8 8 8 7 8 10 11 10 9 10 9 8 12 10 9 6 3 5
24 15 16 28 40 42 38 33 28 25 21 14 19 19 18 21 22 22 19 17 14 11 8 9 6 7 10 11 8 7 7 12 12 9 10 7 6 8 11 10 11 8 6
39 18 9 16 22 45 42 36 31 27 21 14 15 18 14 17 21 22 21 17 13 10 12 9 7 8 8 10 9 5 5 6 7 6 8 8 8 9 13 11 8 6 8
24 16 14 6 14 24 41 40 34 28 20 15 15 19 18 17 17 17 14 8 11 12 11 11 12 9 8 8 9 8 7 6 7 6 7 11 10 10 11 11 11 12 12
8 14 19 10 6 9 22 37 36 30 23 19 19 19 20 18 17 17 15 14 12 14 14 14 16 15 12 10 8 9 7 5 5 7 9 10 12 13 14 12 12 12 13
4 14 18 19 9 8 6 18 37 32 28 27 27 21 18 18 18 19 18 17 18 18 18 15 12 11 11 10 11 11 9 10 11 10 13 13 12 14 12 14 16 15 14
3 6 11 23 13 23 21 19 28 31 23 25 35 24 21 19 18 18 19 18 18 17 15 14 13 14 16 16 15 14 14 13 13 15 18 17 13 11 11 12 13 15 16
4 8 10 11 11 12 18 28 15 23 29 31 28 28 27 25 19 20 20 20 18 18 18 18 18 19 18 18 17 16 15 15 14 17 18 17 14 13 13 13 13 13 15
5 12 16 15 17 19 26 23 21 20 18 25 21 24 28 24 21 21 20 18 19 20 23 24 23 20 21 21 19 18 17 18 22 17 19 16 16 16 15 15 15 17 17
3 6 10 17 18 18 12 9 7 18 17 16 15 12 8 16 19 21 20 20 17 20 20 19 20 19 19 18 18 18 18 20 19 17 16 15 17 16 17 17 16 17 17
2 5 6 8 13 14 9 6 4 10 7 3 3 7 12 12 17 19 21 21 15 14 17 17 18 17 16 16 16 16 13 14 15 15 18 20 19 18 18 18 13 14 14
1 5 7 4 3 8 13 11 8 9 7 6 6 7 13 10 12 13 10 8 10 10 10 10 9 8 9 10 10 9 7 10 10 8 12 15 15 12 11 8 3 3 3
2 2 2 2 1 1 9 10 13 13 12 12 11 11 10 10 8 8 7 8 6 3 3 3 3 1 1 3 4 3 3 2 3 3 4 3 3 3 3 4 6 8 9
6 3 3 3 1 3 5 8 9 11 9 10 7 6 8 8 7 6 7 7 6 5 4 3 2 2 4 4 4 3 2 2 2 1 1 0 1 1 2 3 7 8 7
7 4 2 4 4 4 6 6 6 6 9 7 8 8 8 8 8 7 7 5 5 6 6 6 5 3 2 2 3 3 4 5 5 4 4 2 3 3 4 4 4 2 2
10 7 4 4 6 4 8 8 8 10 9 9 8 8 9 8 7 7 7 8 9 7 4 3 1 1 1 2 3 6 7 7 6 5 4 3 3 4 6 6 6 4 4
11 10 8 6 5 5 7 10 9 8 9 10 10 10 11 11 8 7 8 8 8 7 5 4 2 4 7 10 11 13 12 12 12 10 8 7 6 5 5 5 5 5 6

GFSMW_850_spd_138.txt.gz
Wind_Speed
33 31 30 29 29 24 25 21 19 21 21 15 16 20 14 12 14 11 8 7 9 5 5 1 7 16 9 9 8 4 4 3 4 2 8 11 9 10 11 16 11 6 6
30 29 32 31 29 25 23 24 22 17 21 14 12 15 16 12 9 9 8 8 7 3 5 4 9 14 6 8 6 10 6 1 4 5 8 11 5 1 9 13 16 7 4
31 32 34 34 31 28 24 25 25 20 20 18 17 22 19 13 15 13 10 9 5 6 5 15 9 12 9 6 3 7 3 4 3 6 10 3 2 8 16 13 9 7 5
32 33 38 38 34 28 24 25 26 24 22 20 18 19 20 15 13 11 11 7 4 5 6 5 5 5 7 4 3 4 2 2 5 6 4 4 6 3 6 9 10 8 4
32 31 38 37 32 29 26 29 27 26 23 22 21 17 18 19 15 15 14 13 7 6 5 4 2 1 6 3 3 2 3 5 4 2 3 4 7 6 7 13 6 9 2
29 26 37 38 35 31 27 28 29 25 23 23 23 20 21 18 15 14 16 16 13 11 9 6 3 2 4 6 3 2 3 6 6 6 7 4 4 5 7 11 7 8 5
30 21 30 39 40 36 31 28 30 27 23 25 25 22 22 19 16 15 16 15 14 12 13 9 7 5 4 4 5 5 6 3 4 5 5 6 6 3 5 8 7 7 5
28 27 21 36 41 39 35 28 32 29 27 25 28 25 22 20 17 19 16 15 13 14 12 14 15 10 8 6 5 4 6 8 7 6 6 6 5 3 3 7 7 7 5
12 21 26 36 45 42 39 32 29 31 28 25 29 28 26 22 21 23 17 13 14 14 14 12 17 11 8 8 7 8 10 9 10 8 9 8 5 5 6 8 8 5 8
20 13 16 34 46 42 40 35 29 28 26 25 28 29 28 26 24 20 20 18 16 13 10 12 12 14 10 8 8 9 12 12 12 12 11 11 10 10 9 10 11 8 7
17 15 10 19 44 46 42 39 33 30 30 25 25 28 28 29 25 24 23 20 18 15 16 13 12 13 14 11 10 9 10 11 13 13 14 13 14 11 11 11 11 12 11
13 11 8 15 34 41 44 41 36 32 30 26 24 25 27 26 28 27 27 23 19 16 14 11 13 13 10 11 12 11 10 10 9 10 13 13 14 13 11 11 11 11 12
9 15 12 9 24 31 39 44 43 35 32 27 22 23 26 25 28 27 27 24 19 17 16 16 16 13 11 10 12 12 11 9 9 9 9 10 14 15 14 11 12 12 12
4 12 13 13 15 24 26 39 43 41 34 30 25 23 25 23 24 27 24 22 21 19 17 16 15 15 14 14 12 12 12 11 9 8 8 8 11 13 14 13 12 12 13
2 7 13 10 9 5 23 28 38 36 38 33 29 22 19 20 20 21 24 22 20 17 17 17 15 14 14 13 11 11 13 13 13 13 11 12 12 14 16 16 14 14 14
2 3 9 15 22 7 4 15 17 37 37 35 30 23 21 20 22 24 25 20 22 21 19 18 16 16 16 16 15 15 15 17 16 15 15 16 18 16 15 13 12 13 13
5 6 10 9 13 23 27 5 9 17 35 22 33 29 27 24 23 23 24 23 22 22 22 21 20 19 19 21 20 20 19 17 18 18 17 18 20 17 14 12 13 13 14
4 6 6 9 7 3 8 16 10 13 24 34 27 33 34 31 28 26 25 26 24 25 24 23 23 23 24 22 20 20 19 20 21 21 21 20 19 17 15 14 14 15 15
2 3 8 12 13 9 7 3 6 11 13 28 33 25 29 31 31 30 26 23 24 24 23 25 24 24 22 20 16 15 15 18 19 19 19 17 16 16 16 15 15 15 14
6 4 4 10 15 14 7 3 5 7 11 24 31 31 21 23 30 25 25 25 24 23 23 25 19 16 15 14 13 12 13 14 14 11 12 14 16 18 17 15 14 11 12
6 4 4 4 8 9 8 9 7 6 8 17 14 7 5 9 10 15 17 19 19 16 13 13 11 10 9 8 9 9 8 6 6 7 6 8 9 6 7 5 2 2 2
4 2 2 3 3 5 8 12 9 10 6 6 6 9 11 12 11 11 9 8 7 8 12 9 7 6 5 4 6 5 6 5 3 2 1 1 2 3 3 4 3 4 3
3 1 1 3 4 5 7 9 10 11 11 13 8 5 7 13 10 9 9 9 10 11 10 8 7 7 7 6 5 4 3 3 2 2 2 1 2 2 3 3 5 6 3
6 3 1 2 3 6 7 8 9 11 10 6 6 8 7 8 9 9 10 9 10 9 8 7 7 7 7 6 4 2 2 3 5 4 4 3 1 0 2 4 4 4 4
5 3 1 1 1 2 6 7 8 8 7 8 8 9 9 9 8 9 9 7 6 5 4 6 4 3 2 3 5 6 7 7 7 6 5 5 4 4 4 4 4 4 4
6 6 4 3 2 3 5 6 6 7 7 9 10 9 10 11 10 9 9 9 7 6 5 4 2 5 8 12 12 13 13 13 14 11 10 9 8 7 7 7 7 6 6

GFSMW_850_spd_141.txt.gz
Wind_Speed
27 29 29 28 27 23 19 19 18 18 18 17 17 16 14 14 15 13 9 9 8 8 8 4 9 12 10 8 7 6 4 2 2 3 6 8 11 13 11 6 15 14 3
27 31 32 31 29 26 23 20 17 17 20 17 14 16 13 10 10 11 11 8 7 4 7 5 7 13 12 11 11 9 10 4 3 1 2 4 6 3 5 6 10 12 2
28 33 35 34 30 28 27 24 20 17 18 16 15 18 16 15 14 13 12 9 7 6 2 7 11 9 11 8 11 7 5 1 2 3 4 3 1 3 6 9 12 7 4
30 35 36 35 34 28 28 28 25 21 22 20 18 15 19 16 15 12 10 10 8 8 7 6 8 8 7 5 4 7 3 2 2 4 4 4 4 5 4 8 10 10 4
35 37 37 36 34 29 28 28 27 24 21 20 19 19 22 18 13 13 11 12 9 9 8 7 5 4 6 5 3 3 4 4 4 1 2 3 6 7 7 7 7 7 7
36 37 36 37 36 32 29 29 30 28 24 21 20 23 22 22 18 16 14 14 11 11 9 8 6 4 7 7 6 5 4 5 5 3 3 4 3 5 8 13 8 7 6
31 38 37 38 40 37 33 29 30 30 28 25 22 24 21 21 19 16 16 16 15 12 10 8 7 5 4 4 5 7 8 6 4 3 3 4 4 4 6 8 7 8 7
19 26 34 37 41 40 37 33 30 32 31 27 25 26 25 24 22 17 15 15 16 13 12 12 10 9 8 8 7 7 7 8 7 5 4 4 5 7 7 6 8 9 8
18 26 25 33 37 42 40 37 32 30 33 31 28 30 27 27 24 21 19 19 18 15 14 13 14 15 12 11 10 10 9 10 10 10 8 7 8 6 8 8 9 8 10
19 20 28 30 32 36 41 40 36 30 28 32 30 32 31 28 25 21 24 23 18 15 13 13 15 16 15 13 12 12 13 13 11 11 11 10 12 11 11 11 11 11 11
4 18 17 22 34 33 36 42 42 34 30 30 32 32 33 31 28 26 26 25 20 17 16 15 12 17 18 18 15 13 11 12 12 13 14 14 14 14 12 12 11 11 13
7 12 17 15 26 33 39 42 46 38 33 30 29 32 33 33 32 33 31 27 25 20 19 17 17 16 15 16 15 12 11 12 12 10 12 12 12 12 13 12 13 13 13
7 7 13 13 18 30 36 39 41 40 37 33 32 29 32 35 35 34 32 30 26 23 21 19 19 16 15 14 11 11 12 12 12 11 12 10 10 12 14 14 14 14 14
4 12 16 18 13 20 28 33 38 44 43 39 34 33 31 35 36 34 35 32 29 27 22 21 18 17 15 13 12 13 13 14 13 13 11 10 10 11 11 14 16 15 15
2 9 13 13 19 18 24 33 33 37 40 37 36 35 30 31 33 33 33 31 31 28 24 21 18 15 15 14 13 13 14 14 15 15 14 14 16 14 14 15 16 16 17
3 7 17 12 10 12 17 26 26 27 36 39 38 36 32 29 32 29 29 31 29 27 24 20 17 16 16 15 15 16 17 18 17 19 19 19 19 17 16 17 17 16 15
8 7 11 16 15 18 15 12 18 17 13 30 35 38 35 34 33 30 28 28 29 26 27 24 20 20 20 20 20 18 20 21 22 21 19 19 20 18 19 17 17 16 16
7 8 7 12 12 12 16 19 23 22 23 19 28 39 36 33 30 32 31 29 29 26 24 25 24 24 24 22 22 22 21 20 21 21 22 22 21 21 20 18 17 16 17
4 5 7 9 10 10 6 3 9 14 17 28 30 36 41 31 29 33 33 31 31 30 29 30 27 23 23 26 25 22 21 20 17 18 20 20 18 17 16 15 14 15 17
1 3 4 9 12 10 9 7 8 8 10 16 23 25 33 42 30 29 36 36 31 29 28 26 23 22 22 21 15 16 18 16 15 18 17 13 12 14 16 12 11 10 11
1 2 5 4 6 13 11 10 7 3 5 4 12 20 21 19 17 16 36 27 25 24 22 22 20 15 15 11 11 11 13 13 13 10 10 10 9 8 6 4 2 2 2
2 3 3 2 2 2 7 9 7 7 6 8 8 7 8 20 23 21 6 2 10 7 6 11 13 12 10 7 6 5 6 8 8 7 5 2 1 2 1 1 1 4 5
1 4 5 3 2 3 5 4 8 8 9 7 8 7 5 4 5 6 12 8 7 6 11 10 7 6 6 5 7 7 7 5 4 4 3 2 1 2 3 1 0 2 2
3 2 5 4 1 1 4 7 9 11 13 9 11 8 7 9 14 13 14 18 18 17 13 9 9 9 9 7 6 5 4 3 3 4 4 3 1 1 1 2 2 3 3
8 3 3 3 3 1 3 3 4 6 7 6 12 12 12 12 15 15 15 13 12 10 10 11 10 8 7 6 5 4 5 6 6 5 5 3 2 1 1 1 2 3 5
11 6 4 2 1 3 3 4 4 5 5 8 11 12 13 12 12 13 13 12 11 10 10 8 4 8 9 9 10 11 10 9 8 7 7 5 4 4 5 5 5 5 5

GFSMW_850_spd_147.txt.gz
Wind_Speed
17 14 18 17 16 15 16 17 19 19 18 18 17 15 12 11 9 7 4 3 4 4 3 4 6 5 4 6 4 3 5 7 8 9 11 12 11 8 8 6 6 5 5
18 19 19 21 20 18 18 17 20 20 16 16 18 15 13 11 10 9 6 4 4 4 3 6 5 3 7 8 7 7 9 11 12 10 11 6 7 4 3 6 6 4 4
20 18 21 22 22 22 20 19 20 22 19 16 16 14 14 10 10 9 10 7 5 4 4 6 9 6 2 5 5 7 6 6 7 6 4 4 3 6 1 5 10 8 4
20 19 21 22 24 21 22 20 20 21 21 19 18 16 14 13 10 7 6 6 5 5 4 4 1 5 4 3 3 4 4 3 4 4 3 5 4 4 2 4 7 8 9
25 24 23 25 26 23 22 21 21 20 22 22 22 17 13 15 11 9 8 7 7 6 5 4 2 4 4 4 3 3 3 3 4 4 4 3 3 5 4 4 7 7 8
21 26 23 25 25 25 25 24 23 21 20 21 23 19 15 12 13 11 10 9 8 8 8 7 5 2 3 5 5 5 5 4 5 4 4 4 4 4 4 5 8 8 8
19 25 25 27 27 27 26 26 26 26 23 22 23 21 17 14 14 14 10 10 9 8 8 8 7 7 5 5 6 7 8 6 5 4 3 5 4 5 5 5 5 6 8
18 23 26 27 30 26 26 28 27 27 26 26 22 21 19 17 15 14 14 13 12 10 10 10 9 8 8 6 6 7 7 7 6 6 6 6 6 6 7 4 4 8 8
10 18 20 24 28 30 28 28 28 26 26 26 25 24 21 19 18 14 14 14 13 13 11 11 10 11 11 10 10 9 9 9 9 8 9 8 8 8 8 6 7 7 8
9 12 18 21 24 28 27 28 29 29 27 25 26 26 25 23 20 20 19 17 15 13 13 13 12 12 13 13 13 11 10 9 10 9 9 9 10 11 10 9 9 10 10
11 13 17 22 22 27 27 28 28 29 30 29 28 28 28 26 23 23 21 19 18 17 17 15 15 13 12 13 13 13 13 11 11 9 9 9 8 9 10 10 10 10 9
10 11 6 13 21 21 23 27 29 29 30 32 30 29 26 26 26 24 23 21 21 19 19 17 15 14 14 14 13 14 12 12 11 9 9 8 9 9 9 10 11 10 11
6 3 4 15 13 16 22 24 26 27 26 29 31 32 30 27 26 26 24 25 23 21 19 20 18 16 16 15 14 13 12 11 11 11 11 10 10 9 9 9 10 10 11
4 4 4 9 13 17 23 22 26 31 31 29 27 29 32 29 25 23 23 23 25 24 23 22 20 19 18 17 16 15 14 13 13 12 12 12 12 10 9 10 10 9 11
3 5 8 12 11 13 15 19 23 27 28 29 28 27 28 31 29 25 23 21 22 24 26 26 24 21 20 18 16 15 16 16 15 13 12 12 13 14 14 14 14 13 12
6 6 6 8 7 8 8 12 13 19 22 24 26 24 24 27 29 28 25 24 22 22 24 25 27 26 23 21 18 18 18 16 15 14 15 16 16 17 17 17 16 16 15
7 7 6 6 9 9 5 5 4 5 12 21 24 25 24 25 27 27 27 25 23 21 22 23 24 24 24 23 20 20 21 17 18 17 16 17 18 15 15 15 17 18 18
6 5 5 5 6 10 10 8 10 9 9 8 10 16 21 25 25 27 26 25 23 20 20 20 20 23 24 23 23 23 21 21 22 21 19 18 18 16 15 16 18 18 16
4 3 4 6 7 8 9 7 3 6 9 12 14 15 16 18 21 21 23 24 22 19 19 21 21 21 23 24 26 29 23 23 22 22 21 17 15 14 15 17 15 12 12
2 4 4 5 8 10 11 10 6 8 10 8 11 15 17 21 26 24 28 32 27 20 13 15 19 23 24 27 25 24 16 16 17 15 13 13 12 12 11 11 9 5 4
1 4 6 7 8 9 13 15 13 10 7 7 6 13 12 20 21 22 26 25 29 34 25 17 16 21 24 21 9 8 10 11 11 12 9 8 8 7 6 5 3 2 3
2 4 5 7 7 8 9 9 12 9 6 2 6 7 5 9 9 12 16 24 24 26 24 18 12 11 13 11 8 6 8 11 10 10 7 7 7 3 3 4 3 2 2
3 3 4 6 7 5 5 5 8 8 9 2 4 9 2 7 7 6 11 14 14 12 15 13 10 7 11 11 6 4 7 4 7 8 5 3 2 3 5 5 3 3 4
6 4 3 6 7 6 3 4 8 8 11 9 5 5 5 10 9 8 13 9 10 16 16 14 14 14 12 11 8 7 4 7 7 6 7 5 5 5 4 5 4 3 3
7 5 4 4 7 5 4 5 4 5 8 9 8 6 2 5 7 10 12 12 14 13 14 13 13 13 13 14 14 12 12 11 9 8 7 6 5 6 5 5 4 4 6
8 7 6 4 6 3 5 5 4 5 7 6 7 7 3 5 8 11 15 15 13 12 11 10 10 12 12 12 11 10 10 9 9 9 8 7 6 6 7 7 7 8 8